GFSSW_sfc_dewp_294.txt.gz
Dewpoint
53 54 53 53 52 51 51 52 52 52 52 51 51 50 50 51 45 15 20 35 41 47 40 24 23 24 27 26 28 26 16 15 13 13 12 23 25 31 31 29 27 28 27 27 29
53 53 54 53 53 52 51 51 52 52 52 52 51 51 50 51 33 19 20 44 43 45 23 23 21 23 21 24 25 21 12 11 16 17 19 24 27 29 27 27 26 26 27 29 31
52 53 54 54 53 53 52 51 50 52 52 52 50 49 49 47 17 6 35 42 43 36 26 26 25 24 20 23 23 24 13 17 18 21 25 26 29 28 27 25 25 26 28 29 30
51 52 53 53 53 53 52 50 51 51 51 51 48 49 50 28 -1 6 38 40 39 25 24 23 20 21 19 17 20 19 21 20 24 23 26 26 30 27 27 24 27 29 30 28 28
52 52 53 53 53 52 51 51 51 51 51 51 50 49 34 13 5 11 35 30 22 24 22 24 21 20 18 18 21 22 22 23 23 24 27 32 31 31 29 27 28 28 26 27 28
52 52 52 53 52 52 51 50 51 50 50 50 49 48 29 7 11 15 17 20 22 22 23 22 23 24 19 19 20 21 23 21 22 23 32 30 29 29 28 28 24 22 21 24 26
53 52 52 53 52 51 50 50 49 50 49 48 47 42 26 13 13 14 17 20 21 22 23 24 25 21 21 19 20 21 18 17 19 28 30 30 27 27 27 25 23 20 20 22 24
54 52 52 52 52 51 50 49 49 49 49 47 46 33 12 10 14 13 16 18 19 19 25 26 26 23 18 20 16 17 16 7 16 27 30 26 22 27 28 25 23 19 19 21 23
56 53 53 52 51 50 50 49 49 49 45 45 33 25 9 25 8 13 18 17 17 20 22 22 23 19 18 11 7 15 1 9 13 25 28 26 22 27 29 24 20 19 20 22 23
57 55 54 52 50 49 50 49 48 43 33 31 18 11 9 8 22 21 20 22 19 21 25 17 17 12 15 10 6 -1 9 11 12 16 19 21 23 26 25 22 22 21 21 22 23
58 55 53 52 48 49 41 29 26 27 24 12 12 11 7 9 13 14 18 18 16 17 15 18 6 8 9 14 15 14 13 13 12 18 17 19 23 24 24 20 19 18 20 21 22
58 55 53 50 46 46 35 28 31 34 33 31 15 9 10 11 8 17 20 15 14 12 13 12 2 5 12 15 14 12 11 12 14 14 15 19 22 22 24 21 19 18 19 20 21
58 56 54 48 43 37 36 36 41 39 39 37 11 10 6 13 17 17 19 19 12 11 9 8 6 14 14 15 11 13 14 12 10 14 20 23 19 17 18 19 16 14 18 20 21
59 56 53 43 42 35 33 40 43 43 36 30 10 11 9 16 18 19 20 23 17 11 6 5 13 12 11 7 14 13 16 15 13 16 10 20 9 13 15 15 12 11 17 20 21
58 56 50 45 38 34 38 42 44 45 28 13 9 12 11 15 16 20 24 21 17 14 14 7 8 11 4 5 13 13 17 16 18 18 16 14 8 11 13 11 13 12 17 19 21
58 51 48 46 43 41 43 44 44 34 23 15 12 11 13 21 16 21 21 23 24 19 12 8 16 14 12 14 14 17 19 14 13 16 2 5 7 11 6 7 13 14 16 18 20
52 50 47 46 43 44 45 45 35 32 27 20 12 14 22 29 19 24 23 21 22 19 18 11 7 11 17 9 14 15 13 2 -4 -7 -4 6 12 11 9 13 7 11 15 18 20
49 47 46 44 45 46 45 39 31 31 32 19 22 26 8 9 9 13 21 21 20 23 20 14 11 12 15 14 12 16 9 0 -25 -11 -3 11 6 11 16 15 11 12 14 17 18
46 44 43 44 46 46 42 32 34 32 28 26 29 31 31 11 18 16 14 18 19 24 18 16 5 14 15 16 10 9 10 14 0 2 -1 3 7 10 16 13 13 13 15 15 17
44 42 40 44 45 44 37 35 36 31 26 29 34 33 19 12 20 21 15 21 21 21 23 19 13 14 16 13 14 12 15 2 3 -20 -23 -7 -1 5 9 10 11 11 12 13 16
45 41 40 44 44 39 33 34 36 29 33 34 34 32 25 17 18 25 24 21 22 21 22 20 17 17 12 13 12 11 6 13 8 1 -14 -10 -7 5 1 2 6 8 9 11 14
44 38 41 43 35 34 33 35 32 29 34 34 34 33 32 24 25 19 19 20 23 22 20 22 19 15 12 16 18 15 12 9 -2 -18 -4 -4 -1 14 7 3 2 7 8 11 14
38 35 41 40 32 32 32 32 33 30 30 32 32 32 27 26 27 16 18 24 25 22 21 21 14 10 13 15 14 15 14 8 2 -3 -8 -8 -8 11 12 8 6 3 8 11 14
37 32 34 35 34 33 32 32 32 32 32 33 32 30 23 24 16 19 18 22 24 24 25 20 16 14 9 11 11 8 11 12 6 -1 -10 0 1 4 7 7 9 9 5 9 12
40 35 35 29 31 32 33 32 30 30 30 32 28 28 26 21 21 20 18 20 23 25 20 20 11 13 8 10 13 11 10 9 1 1 -3 -8 -0 5 8 3 4 -0 6 9 12
38 36 35 33 34 32 34 32 32 30 28 27 28 28 28 23 26 19 20 18 17 20 15 19 17 11 7 13 12 12 11 13 9 10 5 4 7 10 7 5 6 4 2 8 10
42 41 39 35 32 32 32 33 32 31 32 33 30 27 26 24 22 20 20 20 21 19 13 14 13 8 4 11 8 5 8 11 11 8 8 5 4 10 10 14 10 8 -0 2 8

GFSSW_sfc_dewp_300.txt.gz
Dewpoint
53 53 53 54 54 54 53 53 52 52 52 53 53 52 52 51 49 21 7 33 42 47 44 22 22 26 27 27 29 26 19 18 14 13 12 23 22 29 31 28 28 28 26 23 24
52 52 53 53 54 53 53 53 52 52 53 53 53 50 50 51 29 16 24 43 44 45 22 19 17 24 22 24 26 22 15 9 14 15 15 23 23 26 27 27 27 25 22 22 23
54 53 53 53 54 53 53 52 52 52 52 52 52 52 51 45 8 4 35 41 41 33 22 23 22 23 21 23 23 22 11 15 15 17 21 22 25 29 27 26 26 21 21 22 22
56 54 53 53 53 53 53 52 51 51 52 51 51 51 51 28 13 5 40 39 37 25 23 21 21 19 18 15 20 17 18 18 21 22 24 25 29 27 28 27 21 22 23 22 20
58 56 55 54 53 53 53 51 51 51 50 50 50 51 33 12 6 12 35 29 22 22 22 21 18 17 14 16 19 19 20 22 22 22 24 28 27 27 28 25 25 21 18 19 20
59 58 56 54 54 53 53 52 50 50 50 49 48 48 24 19 12 13 17 20 20 22 22 22 20 20 16 17 19 20 22 21 21 22 24 26 28 31 29 27 22 15 14 15 19
60 59 57 55 54 53 52 51 49 50 50 48 45 37 23 16 12 15 19 20 17 20 21 24 23 19 18 17 19 19 17 17 19 24 27 30 29 29 28 24 17 14 12 15 19
61 60 59 57 54 53 52 49 50 53 51 46 46 29 17 10 12 21 20 17 19 20 24 25 26 21 18 20 17 17 16 12 16 26 30 26 13 27 28 17 19 16 14 15 17
61 60 59 57 55 53 51 49 51 47 48 45 29 20 14 26 9 18 31 28 22 26 28 28 26 22 19 13 8 14 5 1 5 23 28 26 20 28 27 19 20 20 16 18 21
61 60 59 58 55 52 50 48 45 38 37 34 18 19 13 8 21 20 20 32 33 31 27 20 20 17 15 11 10 -7 -3 5 6 14 21 21 22 23 26 22 25 22 21 28 27
59 60 59 58 53 47 41 36 41 38 31 37 29 22 11 8 15 16 24 19 22 20 25 19 15 16 5 10 12 9 7 6 7 13 16 16 18 20 25 26 23 20 27 27 26
58 58 60 57 53 42 37 39 34 36 39 33 20 20 9 9 11 19 19 18 13 11 19 16 14 7 11 14 12 9 5 3 9 14 13 13 17 30 26 27 25 32 26 26 26
57 58 59 56 46 40 36 36 39 37 42 39 14 12 8 10 13 15 18 17 12 12 12 11 8 12 11 12 8 6 5 7 7 11 16 22 25 25 22 20 18 14 20 26 26
57 57 57 49 49 37 36 40 41 43 41 35 15 9 7 14 13 18 20 19 15 8 7 6 12 10 8 3 8 6 13 12 13 15 21 21 22 22 21 26 6 9 18 26 26
57 58 53 54 43 45 43 45 46 46 31 22 10 11 13 11 12 19 22 18 13 10 12 8 6 7 2 4 11 9 15 18 19 20 20 20 22 20 15 12 9 11 16 22 26
52 52 51 50 47 45 45 46 46 36 31 17 7 6 6 19 16 20 18 21 21 15 10 9 17 12 12 13 13 15 17 17 17 22 21 17 18 14 16 20 14 17 16 18 25
50 49 48 46 44 46 47 47 36 32 32 23 13 12 15 26 18 23 33 32 21 24 23 10 7 13 15 6 14 11 15 21 19 20 19 14 12 21 19 17 21 20 19 20 25
48 46 45 45 47 47 47 41 31 35 34 24 16 23 25 11 9 11 17 22 20 23 21 12 15 10 14 10 9 12 12 16 7 10 5 8 13 17 17 18 23 23 21 19 23
46 45 43 44 46 47 44 32 34 36 31 27 30 34 31 17 15 27 15 16 17 29 24 19 3 15 14 13 11 9 16 15 13 8 3 -1 2 9 12 5 13 17 19 20 22
47 44 42 43 45 45 39 35 34 34 27 30 34 36 34 20 21 26 28 18 20 19 23 24 16 11 15 13 14 12 13 13 17 9 6 -9 -8 -1 7 14 14 16 19 19 21
49 43 42 44 45 42 34 34 35 31 34 34 36 36 35 24 17 29 30 22 19 20 20 21 23 19 14 10 7 11 15 13 12 12 9 -4 -0 18 17 20 18 18 19 19 21
47 39 42 43 39 37 35 35 35 34 34 35 35 35 35 31 30 24 20 23 21 19 20 18 25 16 11 15 17 14 9 9 8 7 9 8 1 21 21 20 19 18 19 19 21
42 39 42 41 34 33 34 34 36 34 35 33 33 34 34 32 31 26 16 23 22 19 23 24 21 17 18 19 15 14 12 8 8 12 10 7 -2 14 14 18 19 19 18 20 21
42 34 37 37 36 34 34 35 35 34 34 35 34 31 29 29 29 29 19 22 23 27 24 20 19 17 8 16 18 16 16 9 10 4 9 7 3 3 4 17 18 20 18 20 21
43 37 38 33 34 34 34 34 33 34 33 35 33 31 31 29 25 26 25 23 22 28 29 21 14 14 5 5 11 12 16 15 12 4 5 5 7 9 14 18 17 17 19 20 20
39 37 38 37 35 33 34 33 33 34 33 31 31 33 32 31 30 27 27 25 20 22 24 23 16 10 11 9 9 9 9 13 14 10 3 6 9 12 14 15 17 20 18 19 19
45 43 40 36 33 33 34 33 34 35 35 35 32 32 29 32 33 21 32 25 20 24 24 20 19 13 13 9 13 17 17 15 14 15 10 3 7 12 14 12 15 20 19 19 19

GFSSW_sfc_dewp_303.txt.gz
Dewpoint
53 53 53 54 54 54 54 53 53 53 53 53 54 53 51 51 52 31 6 35 42 48 47 21 20 23 25 25 29 28 20 17 16 13 13 20 20 25 27 24 26 27 27 25 25
55 54 53 54 54 54 53 53 52 52 53 53 53 53 52 52 33 14 31 44 45 45 21 16 14 19 20 22 25 25 18 13 13 14 12 20 20 22 24 23 24 26 26 24 24
57 56 55 54 54 54 53 53 52 52 52 52 52 52 52 47 21 5 39 43 43 41 21 20 20 21 20 21 21 20 13 15 11 13 18 20 21 24 25 22 23 25 23 24 23
58 57 56 55 54 53 53 53 52 52 51 51 50 51 52 29 22 8 40 40 40 27 21 19 19 19 18 16 17 17 15 15 19 20 21 23 26 26 27 26 24 23 23 20 19
60 59 58 57 56 55 53 53 52 51 51 51 49 51 35 23 20 9 31 26 22 21 19 18 14 14 15 12 15 17 16 20 21 22 23 25 27 26 26 28 25 25 18 18 18
61 60 59 58 56 55 54 53 53 51 51 51 49 49 27 27 10 10 11 18 17 20 20 19 17 17 14 13 16 19 20 20 21 21 22 24 23 29 26 29 26 21 18 17 19
62 61 60 59 57 56 55 54 53 51 51 50 47 36 24 22 10 15 16 17 17 18 20 23 23 21 17 16 19 17 15 16 17 19 22 28 24 27 27 29 26 19 18 20 21
62 62 61 60 58 57 55 54 51 52 51 50 46 31 25 11 12 13 26 19 20 19 23 25 25 22 20 20 17 16 17 15 18 22 28 26 10 25 28 27 22 21 20 21 18
61 62 61 60 59 57 54 52 51 47 47 46 36 24 23 26 11 17 24 27 30 27 27 28 28 29 21 21 26 17 11 8 6 18 24 25 20 27 28 26 21 22 23 21 23
58 58 59 60 59 56 52 50 48 41 40 35 24 22 18 15 18 16 19 22 33 34 32 26 22 20 17 16 25 18 -1 -0 2 16 21 21 21 20 25 28 27 28 25 31 31
57 57 57 59 59 50 47 49 42 36 29 38 39 33 31 17 14 17 21 25 25 27 28 27 21 23 19 10 9 6 1 -1 -0 12 14 14 15 17 19 24 28 27 29 30 30
57 57 57 58 57 48 45 49 39 37 40 40 37 34 20 14 20 18 17 17 15 13 19 20 20 13 12 11 10 6 2 -2 4 12 13 11 14 32 27 29 30 34 29 30 28
55 56 57 55 50 47 46 40 38 40 43 41 32 23 14 9 13 18 15 13 13 14 13 10 11 9 8 10 8 4 2 2 6 8 12 18 25 27 26 22 17 11 18 28 28
55 56 56 51 52 41 39 40 42 46 39 36 24 13 7 11 12 16 17 17 14 7 6 6 10 9 7 4 6 7 12 11 11 14 19 19 22 23 22 30 0 6 16 27 28
52 54 53 50 43 46 43 45 47 48 30 25 16 11 10 8 11 18 20 18 12 9 8 12 6 8 6 2 7 7 15 13 16 18 20 21 24 21 15 10 2 8 15 23 28
51 51 51 51 48 46 46 46 47 36 31 24 12 8 7 13 16 21 20 19 19 14 12 7 14 11 10 11 11 13 16 17 16 21 22 23 18 15 15 20 14 18 17 19 27
49 49 47 46 44 46 47 48 36 32 36 34 30 22 23 25 27 22 32 32 26 28 28 11 10 12 14 15 12 12 17 23 22 23 23 17 10 24 12 15 23 24 22 22 27
47 47 46 45 47 47 46 44 32 34 35 27 20 22 27 22 18 16 21 24 25 23 22 15 15 11 12 10 8 10 12 19 9 13 5 10 16 20 9 11 27 30 24 20 24
49 48 45 44 46 47 44 33 35 34 33 31 32 34 33 22 18 27 24 22 19 29 27 23 6 13 13 11 10 12 19 16 17 11 2 3 5 10 0 3 10 19 23 23 24
47 46 43 45 46 46 40 35 34 35 33 31 31 36 35 29 24 26 32 22 21 18 24 28 25 10 14 14 13 11 13 18 20 14 10 -4 -5 3 8 15 13 18 21 22 24
47 42 43 45 47 44 35 34 31 33 35 36 35 35 34 34 26 29 33 23 19 18 19 22 25 21 13 12 7 12 18 13 12 14 14 3 8 19 18 20 19 21 22 22 24
45 39 43 45 39 39 34 34 37 35 36 36 35 35 33 34 34 28 28 30 20 18 21 17 29 19 13 15 16 13 7 8 10 16 13 9 6 22 20 21 21 22 22 23 25
42 40 43 43 34 35 34 34 36 35 36 36 34 35 34 34 32 30 21 23 22 17 26 25 26 22 23 22 15 13 12 13 11 14 13 11 7 10 10 19 21 22 22 24 25
43 35 39 39 38 36 35 35 35 36 35 36 35 33 31 32 32 32 26 23 22 27 25 20 24 21 14 21 22 17 16 9 9 10 15 8 7 3 5 17 18 21 22 24 25
43 36 38 33 35 35 35 34 33 34 35 35 35 34 35 31 29 29 30 26 23 28 31 23 19 17 9 3 8 11 19 17 15 7 7 12 8 9 15 19 19 21 22 23 23
40 37 38 36 35 35 33 33 31 34 34 33 33 35 35 31 33 31 30 29 26 26 29 27 23 11 14 9 8 9 10 13 16 10 6 7 10 13 17 15 19 22 22 21 22
45 44 41 38 34 33 34 35 34 36 37 37 34 33 31 33 34 29 34 30 22 25 27 23 24 16 17 7 16 19 21 18 16 16 9 4 10 8 11 7 18 21 22 21 20

GFSSW_sfc_dewp_306.txt.gz
Dewpoint
56 56 55 55 54 55 54 54 54 53 54 54 54 54 54 53 52 37 25 38 41 48 47 32 20 23 29 31 34 34 26 22 19 17 18 21 21 25 28 25 27 26 26 25 27
58 58 57 56 55 55 54 54 54 53 53 53 53 53 53 54 41 27 34 44 45 47 31 19 17 21 23 28 30 29 25 20 14 16 17 22 21 25 25 22 22 25 27 27 26
59 59 58 57 56 55 54 54 54 53 53 52 52 52 54 50 31 11 39 43 44 42 30 20 20 21 24 27 26 25 21 17 14 17 22 23 23 25 26 24 23 24 25 25 24
60 60 59 58 57 57 56 55 54 54 52 52 52 51 54 40 24 15 34 37 41 35 23 20 20 22 25 22 22 19 18 18 22 23 25 24 28 26 27 27 25 25 25 24 21
61 61 60 59 59 58 57 56 55 54 52 52 52 51 43 27 22 12 29 22 22 21 19 19 17 18 19 18 18 17 18 22 22 26 24 25 27 29 27 28 25 26 24 22 21
62 62 61 60 59 58 57 57 56 55 53 52 52 51 37 28 12 12 12 15 16 18 23 22 20 19 17 16 20 20 19 19 21 23 23 23 25 27 28 29 25 27 21 20 22
63 63 62 61 60 60 58 57 56 56 53 52 51 40 29 26 14 14 19 18 19 18 21 26 26 25 22 25 22 19 17 21 18 21 22 29 26 25 28 29 28 26 21 22 26
59 60 62 61 61 60 59 57 56 55 53 51 49 36 28 13 15 10 23 22 23 25 25 29 32 30 25 24 21 22 22 23 20 20 29 26 15 26 29 29 29 22 21 24 25
57 57 58 60 61 60 59 57 56 55 47 48 41 32 26 23 12 17 25 22 27 30 31 27 30 30 26 26 30 33 20 18 16 22 28 25 21 29 29 28 26 23 25 26 27
57 57 57 57 58 59 58 54 56 47 41 37 35 24 24 19 19 18 21 21 27 35 34 31 26 23 21 20 28 27 18 12 8 17 21 24 24 25 25 29 30 30 29 29 28
54 55 56 57 57 58 52 49 47 37 34 32 39 41 39 19 16 18 23 21 27 28 29 29 22 26 25 23 18 18 22 14 -0 17 16 16 16 19 21 25 29 30 28 26 26
54 55 55 57 57 50 49 49 39 39 40 43 43 37 29 18 23 19 20 14 21 15 19 24 21 13 13 14 14 9 5 2 5 13 13 14 14 28 28 30 31 30 28 26 25
53 56 55 53 52 50 47 39 40 40 42 40 34 29 16 9 12 17 16 16 12 13 13 15 12 9 8 11 11 9 5 4 6 11 14 18 24 27 28 28 24 18 20 24 23
52 54 54 52 50 45 41 42 43 47 39 37 23 11 9 12 13 16 17 18 18 9 9 9 11 9 11 7 7 11 14 12 11 14 19 18 16 24 26 24 11 7 17 22 23
51 52 53 51 45 47 44 45 48 48 29 21 13 11 10 10 11 18 22 21 18 15 13 13 10 12 10 7 7 13 16 13 15 19 19 20 20 22 21 13 12 13 19 20 23
50 50 51 51 48 46 47 48 48 36 28 26 24 21 34 34 29 21 23 22 22 17 15 12 15 13 13 12 11 13 17 17 18 22 16 21 18 17 15 12 17 20 20 20 23
49 48 47 46 45 47 47 48 35 30 37 34 34 31 31 32 29 29 32 31 27 23 24 16 11 14 15 16 16 17 20 18 21 18 19 20 11 15 12 16 16 16 20 21 22
50 48 46 45 47 47 47 42 27 32 35 32 25 28 22 29 22 18 23 26 29 25 24 21 16 12 14 13 12 15 16 19 11 13 12 17 6 18 9 15 18 19 17 21 22
50 48 46 46 46 47 45 32 31 34 33 33 31 32 33 25 22 28 28 26 24 29 24 24 14 13 13 12 11 14 20 19 18 15 8 11 10 13 4 9 14 15 17 19 21
46 44 44 46 47 46 39 34 34 34 35 33 29 31 28 33 26 29 32 25 24 22 27 27 21 13 15 16 14 14 14 18 19 13 7 2 3 9 9 14 17 16 17 19 21
47 42 44 46 46 44 33 32 31 34 36 35 33 33 33 33 32 33 33 24 23 21 21 24 22 18 15 14 13 15 21 16 14 16 9 9 12 15 7 9 11 15 15 18 21
44 38 44 45 37 37 33 34 36 34 38 37 36 35 34 33 32 32 29 32 31 24 24 23 26 19 16 16 16 15 12 12 16 12 12 9 7 20 14 12 12 13 15 18 22
41 39 43 44 32 32 34 34 37 34 37 36 34 35 35 33 31 33 27 30 31 29 26 26 22 19 20 21 16 14 13 16 14 13 9 7 11 17 18 13 14 11 15 19 21
42 34 38 39 38 34 33 33 33 37 36 36 35 35 34 32 33 32 30 30 29 33 29 23 25 21 17 19 22 14 18 12 12 14 10 7 8 9 11 12 12 13 15 18 21
43 35 38 33 35 34 34 32 30 33 35 34 32 34 32 30 27 28 32 29 29 32 33 25 20 19 17 13 13 16 20 16 11 11 2 7 -1 10 13 9 8 11 15 17 18
40 37 38 37 36 33 33 32 30 32 34 31 31 34 33 31 32 30 31 29 29 30 29 27 24 15 18 13 10 11 12 19 15 12 10 8 8 16 15 14 12 11 13 15 16
45 44 40 35 34 32 31 32 31 33 34 34 35 32 29 33 33 33 33 31 30 28 27 25 25 20 17 11 16 16 16 16 17 16 11 6 9 12 12 11 14 11 11 12 14